| time (UTC) | temp F | wind direction | speed MPH | gust MPH | rain 1hr in | rain 24hr in | rain mn in | humidity % | barometer mb |
| 20260510231056 | 54 | 74 | 3.0 | 8.0 | 0.00 | 0.00 | 0.00 | 38 | 1021.2 |
| 20260510230555 | 54 | 355 | 1.0 | 5.0 | 0.00 | 0.00 | 0.00 | 38 | 1021.2 |
| 20260510230057 | 53 | 315 | 3.0 | 11.0 | 0.00 | 0.00 | 0.00 | 38 | 1021.2 |
| 20260510225558 | 53 | 17 | 2.0 | 11.0 | 0.00 | 0.00 | 0.00 | 40 | 1021.1 |
| 20260510225055 | 53 | 53 | 5.0 | 14.0 | 0.00 | 0.00 | 0.00 | 38 | 1021.1 |
| 20260510224556 | 54 | 63 | 6.0 | 14.0 | 0.00 | 0.00 | 0.00 | 37 | 1021.1 |
| 20260510224055 | 54 | 38 | 2.0 | 9.0 | 0.00 | 0.00 | 0.00 | 38 | 1021.1 |
| 20260510223558 | 54 | 294 | 2.0 | 9.0 | 0.00 | 0.00 | 0.00 | 38 | 1021.1 |
| 20260510223055 | 54 | 68 | 3.0 | 8.0 | 0.00 | 0.00 | 0.00 | 37 | 1021.2 |
| 20260510222554 | 54 | 331 | 2.0 | 8.0 | 0.00 | 0.00 | 0.00 | 38 | 1021.2 |
| 20260510222053 | 53 | 84 | 2.0 | 8.0 | 0.00 | 0.00 | 0.00 | 38 | 1021.1 |
| 20260510221554 | 53 | 64 | 3.0 | 12.0 | 0.00 | 0.00 | 0.00 | 39 | 1021.1 |
| 20260510221053 | 53 | 32 | 5.0 | 12.0 | 0.00 | 0.00 | 0.00 | 37 | 1021.1 |
| 20260510220553 | 54 | 69 | 5.0 | 12.0 | 0.00 | 0.00 | 0.00 | 38 | 1021.1 |
| 20260510220054 | 54 | 39 | 3.0 | 10.0 | 0.00 | 0.00 | 0.00 | 39 | 1021.0 |
| 20260510215556 | 55 | 109 | 4.0 | 10.0 | 0.00 | 0.00 | 0.00 | 37 | 1021.0 |
| 20260510215055 | 55 | 69 | 2.0 | 8.0 | 0.00 | 0.00 | 0.00 | 42 | 1020.9 |
| 20260510214551 | 55 | 91 | 2.0 | 8.0 | 0.00 | 0.00 | 0.00 | 41 | 1021.1 |
| 20260510214049 | 55 | 351 | 2.0 | 9.0 | 0.00 | 0.00 | 0.00 | 41 | 1021.1 |
| 20260510213549 | 55 | 45 | 3.0 | 9.0 | 0.00 | 0.00 | 0.00 | 42 | 1021.0 |
| 20260510213048 | 55 | 40 | 2.0 | 9.0 | 0.00 | 0.00 | 0.00 | 41 | 1021.1 |
| 20260510212549 | 54 | 47 | 2.0 | 9.0 | 0.00 | 0.00 | 0.00 | 40 | 1021.2 |
| 20260510212046 | 54 | 44 | 2.0 | 10.0 | 0.00 | 0.00 | 0.00 | 42 | 1021.2 |
| 20260510211545 | 55 | 61 | 6.0 | 10.0 | 0.00 | 0.00 | 0.00 | 39 | 1021.2 |
| 20260510211044 | 55 | 355 | 2.0 | 6.0 | 0.00 | 0.00 | 0.00 | 40 | 1021.3 |
| 20260510210544 | 55 | 355 | 3.0 | 8.0 | 0.00 | 0.00 | 0.00 | 40 | 1021.2 |
| 20260510205546 | 54 | 63 | 4.0 | 9.0 | 0.00 | 0.00 | 0.00 | 42 | 1021.2 |
| 20260510205043 | 54 | 336 | 3.0 | 10.0 | 0.00 | 0.00 | 0.00 | 41 | 1021.3 |
| 20260510204543 | 55 | 63 | 2.0 | 12.0 | 0.00 | 0.00 | 0.00 | 42 | 1021.3 |
| 20260510204044 | 55 | 67 | 4.0 | 12.0 | 0.00 | 0.00 | 0.00 | 43 | 1021.3 |
| 20260510203542 | 55 | 355 | 3.0 | 9.0 | 0.00 | 0.00 | 0.00 | 42 | 1021.4 |
| 20260510203043 | 55 | 51 | 3.0 | 9.0 | 0.00 | 0.00 | 0.00 | 42 | 1021.4 |
| 20260510202538 | 55 | 338 | 2.0 | 8.0 | 0.00 | 0.00 | 0.00 | 44 | 1021.4 |
| 20260510202038 | 54 | 360 | 2.0 | 10.0 | 0.00 | 0.00 | 0.00 | 44 | 1021.4 |
| 20260510201540 | 54 | 57 | 3.0 | 10.0 | 0.00 | 0.00 | 0.00 | 43 | 1021.4 |
| 20260510201040 | 54 | 51 | 3.0 | 10.0 | 0.00 | 0.00 | 0.00 | 43 | 1021.5 |
| 20260510200537 | 54 | 347 | 2.0 | 10.0 | 0.00 | 0.00 | 0.00 | 45 | 1021.5 |
| 20260510200041 | 54 | 56 | 3.0 | 10.0 | 0.00 | 0.00 | 0.00 | 47 | 1021.4 |
| 20260510195537 | 53 | 86 | 3.0 | 11.0 | 0.00 | 0.00 | 0.00 | 48 | 1021.5 |
| 20260510195037 | 52 | 50 | 3.0 | 11.0 | 0.00 | 0.00 | 0.00 | 44 | 1021.5 |
| 20260510194535 | 52 | 85 | 5.0 | 15.0 | 0.00 | 0.00 | 0.00 | 43 | 1021.5 |
| 20260510194036 | 52 | 63 | 6.0 | 15.0 | 0.00 | 0.00 | 0.00 | 45 | 1021.4 |
| 20260510193534 | 53 | 42 | 4.0 | 10.0 | 0.00 | 0.00 | 0.00 | 46 | 1021.3 |
| 20260510193047 | 53 | 329 | 4.0 | 12.0 | 0.00 | 0.00 | 0.00 | 44 | 1021.4 |
| 20260510192533 | 53 | 346 | 4.0 | 12.0 | 0.00 | 0.00 | 0.00 | 45 | 1021.5 |
| 20260510192033 | 53 | 72 | 4.0 | 11.0 | 0.00 | 0.00 | 0.00 | 44 | 1021.5 |
| 20260510191537 | 53 | 66 | 3.0 | 11.0 | 0.00 | 0.00 | 0.00 | 47 | 1021.4 |
| 20260510191031 | 53 | 42 | 2.0 | 10.0 | 0.00 | 0.00 | 0.00 | 47 | 1021.5 |
| 20260510190531 | 53 | 90 | 4.0 | 14.0 | 0.00 | 0.00 | 0.00 | 46 | 1021.7 |
| 20260510190034 | 53 | 300 | 3.0 | 14.0 | 0.00 | 0.00 | 0.00 | 46 | 1021.8 |
| 20260510185533 | 52 | 188 | 3.0 | 11.0 | 0.00 | 0.00 | 0.00 | 46 | 1021.6 |
| 20260510185029 | 52 | 346 | 3.0 | 12.0 | 0.00 | 0.00 | 0.00 | 47 | 1021.7 |
| 20260510184533 | 51 | 355 | 4.0 | 13.0 | 0.00 | 0.00 | 0.00 | 45 | 1021.8 |
| 20260510184031 | 52 | 46 | 6.0 | 13.0 | 0.00 | 0.00 | 0.00 | 48 | 1021.6 |
| 20260510183528 | 52 | 46 | 4.0 | 12.0 | 0.00 | 0.00 | 0.00 | 49 | 1021.6 |
| 20260510183037 | 52 | 297 | 3.0 | 12.0 | 0.00 | 0.00 | 0.00 | 48 | 1021.6 |
| 20260510182527 | 52 | 287 | 3.0 | 12.0 | 0.00 | 0.00 | 0.00 | 46 | 1021.9 |
| 20260510182027 | 52 | 67 | 4.0 | 10.0 | 0.00 | 0.00 | 0.00 | 45 | 1021.8 |
| 20260510181527 | 52 | 90 | 2.0 | 11.0 | 0.00 | 0.00 | 0.00 | 51 | 1021.8 |
| 20260510181025 | 52 | 111 | 3.0 | 10.0 | 0.00 | 0.00 | 0.00 | 52 | 1021.8 |
| 20260510180524 | 51 | 72 | 3.0 | 10.0 | 0.00 | 0.00 | 0.00 | 47 | 1021.8 |
| 20260510180037 | 51 | 301 | 2.0 | 12.0 | 0.00 | 0.00 | 0.00 | 53 | 1021.8 |
| 20260510175523 | 50 | 333 | 4.0 | 14.0 | 0.00 | 0.00 | 0.00 | 49 | 1021.9 |
| 20260510175022 | 51 | 71 | 6.0 | 14.0 | 0.00 | 0.00 | 0.00 | 48 | 1021.8 |
| 20260510174521 | 51 | 272 | 4.0 | 11.0 | 0.00 | 0.00 | 0.00 | 49 | 1021.7 |
| 20260510174022 | 51 | 24 | 3.0 | 17.0 | 0.00 | 0.00 | 0.00 | 51 | 1021.8 |
| 20260510173519 | 50 | 51 | 7.0 | 17.0 | 0.00 | 0.00 | 0.00 | 50 | 1021.8 |
| 20260510173019 | 50 | 57 | 2.0 | 15.0 | 0.00 | 0.00 | 0.00 | 51 | 1021.7 |
| 20260510172518 | 50 | 121 | 4.0 | 11.0 | 0.00 | 0.00 | 0.00 | 50 | 1021.8 |
| 20260510172021 | 50 | 360 | 4.0 | 12.0 | 0.00 | 0.00 | 0.00 | 51 | 1021.7 |
| 20260510171517 | 50 | 54 | 6.0 | 12.0 | 0.00 | 0.00 | 0.00 | 51 | 1021.6 |
| 20260510171015 | 50 | 63 | 3.0 | 10.0 | 0.00 | 0.00 | 0.00 | 51 | 1021.7 |
| 20260510170514 | 50 | 254 | 3.0 | 9.0 | 0.00 | 0.00 | 0.00 | 50 | 1021.6 |
| 20260510170015 | 50 | 5 | 3.0 | 9.0 | 0.00 | 0.00 | 0.00 | 50 | 1021.7 |
| 20260510165514 | 50 | 338 | 2.0 | 9.0 | 0.00 | 0.00 | 0.00 | 52 | 1021.7 |
| 20260510165013 | 50 | 143 | 1.0 | 13.0 | 0.00 | 0.00 | 0.00 | 55 | 1021.6 |
| 20260510164524 | 50 | 80 | 2.0 | 13.0 | 0.00 | 0.00 | 0.00 | 53 | 1021.6 |
| 20260510164011 | 50 | 62 | 3.0 | 10.0 | 0.00 | 0.00 | 0.00 | 54 | 1021.6 |
| 20260510163510 | 49 | 355 | 3.0 | 10.0 | 0.00 | 0.00 | 0.00 | 52 | 1021.7 |
| 20260510163011 | 48 | 79 | 3.0 | 9.0 | 0.00 | 0.00 | 0.00 | 54 | 1021.8 |
| 20260510162509 | 47 | 342 | 3.0 | 13.0 | 0.00 | 0.00 | 0.00 | 54 | 1021.7 |
| 20260510162007 | 48 | 90 | 8.0 | 13.0 | 0.00 | 0.00 | 0.00 | 53 | 1021.7 |
| 20260510161507 | 47 | 53 | 4.0 | 13.0 | 0.00 | 0.00 | 0.00 | 54 | 1021.6 |
| 20260510161004 | 47 | 31 | 4.0 | 14.0 | 0.00 | 0.00 | 0.00 | 55 | 1021.5 |
| 20260510160504 | 47 | 74 | 5.0 | 14.0 | 0.00 | 0.00 | 0.00 | 54 | 1021.6 |
| 20260510160005 | 47 | 64 | 4.0 | 10.0 | 0.00 | 0.00 | 0.00 | 56 | 1021.7 |
| 20260510155502 | 47 | 360 | 2.0 | 11.0 | 0.00 | 0.00 | 0.00 | 57 | 1021.4 |
| 20260510155002 | 47 | 360 | 7.0 | 11.0 | 0.00 | 0.00 | 0.00 | 54 | 1021.5 |
| 20260510154501 | 47 | 42 | 2.0 | 14.0 | 0.00 | 0.00 | 0.00 | 57 | 1021.5 |
| 20260510154101 | 47 | 35 | 6.0 | 14.0 | 0.00 | 0.00 | 0.00 | 55 | 1021.5 |
| 20260510153558 | 47 | 360 | 2.0 | 10.0 | 0.00 | 0.00 | 0.00 | 57 | 1021.4 |
| 20260510153058 | 47 | 360 | 4.0 | 10.0 | 0.00 | 0.00 | 0.00 | 56 | 1021.3 |
| 20260510152556 | 46 | 360 | 3.0 | 9.0 | 0.00 | 0.00 | 0.00 | 60 | 1021.1 |
| 20260510152059 | 46 | 360 | 4.0 | 9.0 | 0.00 | 0.00 | 0.00 | 58 | 1021.2 |
| 20260510151554 | 46 | 360 | 3.0 | 11.0 | 0.00 | 0.00 | 0.00 | 58 | 1021.3 |
| 20260510151052 | 46 | 360 | 4.0 | 11.0 | 0.00 | 0.00 | 0.00 | 59 | 1021.3 |
| 20260510150551 | 45 | 360 | 4.0 | 11.0 | 0.00 | 0.00 | 0.00 | 57 | 1021.2 |
| 20260510150052 | 45 | 360 | 5.0 | 11.0 | 0.00 | 0.00 | 0.00 | 60 | 1021.2 |
| 20260510145550 | 45 | 360 | 5.0 | 11.0 | 0.00 | 0.00 | 0.00 | 60 | 1021.2 |
| 20260510145049 | 45 | 360 | 5.0 | 12.0 | 0.00 | 0.00 | 0.00 | 59 | 1021.1 |
| 20260510144550 | 45 | 360 | 6.0 | 12.0 | 0.00 | 0.00 | 0.00 | 58 | 1021.1 |
| 20260510144047 | 45 | 360 | 6.0 | 11.0 | 0.00 | 0.00 | 0.00 | 59 | 1021.1 |
| 20260510143545 | 45 | 360 | 3.0 | 8.0 | 0.00 | 0.00 | 0.00 | 61 | 1021.1 |
| 20260510143050 | 45 | 360 | 4.0 | 11.0 | 0.00 | 0.00 | 0.00 | 61 | 1021.0 |
| 20260510142543 | 44 | 360 | 5.0 | 11.0 | 0.00 | 0.00 | 0.00 | 61 | 1021.0 |
| 20260510142043 | 44 | 360 | 5.0 | 10.0 | 0.00 | 0.00 | 0.00 | 63 | 1021.0 |
| 20260510141544 | 44 | 360 | 6.0 | 11.0 | 0.00 | 0.00 | 0.00 | 61 | 1021.0 |
| 20260510141040 | 44 | 360 | 5.0 | 11.0 | 0.00 | 0.00 | 0.00 | 62 | 1020.8 |
| 20260510140539 | 44 | 360 | 4.0 | 11.0 | 0.00 | 0.00 | 0.00 | 61 | 1020.8 |
| 20260510140041 | 44 | 360 | 4.0 | 10.0 | 0.00 | 0.00 | 0.00 | 62 | 1020.8 |
| 20260510135538 | 44 | 360 | 4.0 | 9.0 | 0.00 | 0.00 | 0.00 | 62 | 1020.7 |
| 20260510135038 | 43 | 360 | 5.0 | 9.0 | 0.00 | 0.00 | 0.00 | 62 | 1020.7 |
| 20260510134537 | 43 | 360 | 5.0 | 15.0 | 0.00 | 0.00 | 0.00 | 62 | 1020.7 |
| 20260510134039 | 43 | 360 | 5.0 | 15.0 | 0.00 | 0.00 | 0.00 | 62 | 1020.6 |
| 20260510133536 | 43 | 360 | 3.0 | 14.0 | 0.00 | 0.00 | 0.00 | 63 | 1020.6 |
| 20260510133036 | 43 | 360 | 6.0 | 14.0 | 0.00 | 0.00 | 0.00 | 61 | 1020.6 |
| 20260510132536 | 43 | 360 | 6.0 | 14.0 | 0.00 | 0.00 | 0.00 | 61 | 1020.6 |
| 20260510132034 | 44 | 360 | 7.0 | 14.0 | 0.00 | 0.00 | 0.00 | 62 | 1020.5 |
| 20260510131533 | 44 | 360 | 3.0 | 10.0 | 0.00 | 0.00 | 0.00 | 64 | 1020.4 |
| 20260510131033 | 43 | 360 | 5.0 | 10.0 | 0.00 | 0.00 | 0.00 | 62 | 1020.4 |
| 20260510130532 | 43 | 360 | 3.0 | 9.0 | 0.00 | 0.00 | 0.00 | 64 | 1020.3 |
| 20260510130034 | 43 | 360 | 3.0 | 6.0 | 0.00 | 0.00 | 0.00 | 63 | 1020.2 |
| 20260510125531 | 43 | 360 | 3.0 | 9.0 | 0.00 | 0.00 | 0.00 | 63 | 1020.2 |
| 20260510125030 | 43 | 360 | 3.0 | 9.0 | 0.00 | 0.00 | 0.00 | 64 | 1020.0 |
| 20260510124551 | 43 | 360 | 4.0 | 9.0 | 0.00 | 0.00 | 0.00 | 63 | 1020.0 |
| 20260510124030 | 43 | 360 | 4.0 | 9.0 | 0.00 | 0.00 | 0.00 | 64 | 1019.9 |
| 20260510123529 | 42 | 360 | 4.0 | 11.0 | 0.00 | 0.00 | 0.00 | 64 | 1019.9 |
| 20260510123028 | 42 | 360 | 5.0 | 11.0 | 0.00 | 0.00 | 0.00 | 65 | 1019.8 |
| 20260510122528 | 42 | 360 | 3.0 | 6.0 | 0.00 | 0.00 | 0.00 | 68 | 1019.8 |
| 20260510122026 | 42 | 360 | 3.0 | 6.0 | 0.00 | 0.00 | 0.00 | 69 | 1019.8 |
| 20260510121526 | 42 | 360 | 2.0 | 5.0 | 0.00 | 0.00 | 0.00 | 70 | 1019.7 |
| 20260510121025 | 42 | 360 | 2.0 | 5.0 | 0.00 | 0.00 | 0.00 | 71 | 1019.7 |
| 20260510120527 | 42 | 360 | 3.0 | 5.0 | 0.00 | 0.00 | 0.00 | 70 | 1019.7 |
| 20260510120031 | 42 | 360 | 2.0 | 5.0 | 0.00 | 0.00 | 0.00 | 71 | 1019.6 |
| 20260510115523 | 42 | 360 | 2.0 | 5.0 | 0.00 | 0.00 | 0.00 | 72 | 1019.5 |
| 20260510115024 | 42 | 360 | 3.0 | 6.0 | 0.00 | 0.00 | 0.00 | 72 | 1019.4 |
| 20260510114522 | 42 | 360 | 3.0 | 6.0 | 0.00 | 0.00 | 0.00 | 73 | 1019.3 |
| 20260510114021 | 41 | 360 | 3.0 | 6.0 | 0.00 | 0.00 | 0.00 | 74 | 1019.3 |
| 20260510113520 | 41 | 360 | 2.0 | 6.0 | 0.00 | 0.00 | 0.00 | 74 | 1019.2 |
| 20260510113028 | 41 | 360 | 3.0 | 8.0 | 0.00 | 0.00 | 0.00 | 74 | 1019.1 |
| 20260510112525 | 42 | 360 | 4.0 | 8.0 | 0.00 | 0.00 | 0.00 | 73 | 1019.0 |
| 20260510112020 | 42 | 360 | 3.0 | 8.0 | 0.00 | 0.00 | 0.00 | 73 | 1018.9 |
| 20260510111527 | 42 | 360 | 3.0 | 8.0 | 0.00 | 0.00 | 0.00 | 72 | 1018.9 |
| 20260510111015 | 42 | 360 | 2.0 | 6.0 | 0.00 | 0.00 | 0.00 | 72 | 1018.8 |
| 20260510110516 | 42 | 360 | 3.0 | 9.0 | 0.00 | 0.00 | 0.00 | 71 | 1018.7 |
| 20260510110014 | 42 | 360 | 4.0 | 9.0 | 0.00 | 0.00 | 0.00 | 71 | 1018.6 |
| 20260510105514 | 42 | 360 | 4.0 | 10.0 | 0.00 | 0.00 | 0.00 | 70 | 1018.6 |
| 20260510105021 | 43 | 360 | 4.0 | 9.0 | 0.00 | 0.00 | 0.00 | 69 | 1018.5 |
| 20260510104518 | 43 | 360 | 5.0 | 11.0 | 0.00 | 0.00 | 0.00 | 69 | 1018.4 |
| 20260510104013 | 43 | 360 | 4.0 | 11.0 | 0.00 | 0.00 | 0.00 | 68 | 1018.4 |
| 20260510103511 | 43 | 360 | 4.0 | 8.0 | 0.00 | 0.00 | 0.00 | 68 | 1018.3 |
| 20260510103011 | 43 | 360 | 3.0 | 8.0 | 0.00 | 0.00 | 0.00 | 67 | 1018.3 |
| 20260510102511 | 43 | 360 | 4.0 | 8.0 | 0.00 | 0.00 | 0.00 | 67 | 1018.2 |
| 20260510102010 | 43 | 360 | 3.0 | 8.0 | 0.00 | 0.00 | 0.00 | 67 | 1018.1 |
| 20260510101508 | 43 | 360 | 1.0 | 5.0 | 0.00 | 0.00 | 0.00 | 69 | 1018.2 |
| 20260510101013 | 43 | 360 | 2.0 | 4.0 | 0.00 | 0.00 | 0.00 | 69 | 1018.1 |
| 20260510100514 | 43 | 360 | 0.0 | 3.0 | 0.00 | 0.00 | 0.00 | 69 | 1018.0 |
| 20260510100006 | 43 | 360 | 1.0 | 3.0 | 0.00 | 0.00 | 0.00 | 68 | 1017.9 |
| 20260510095505 | 43 | 360 | 1.0 | 3.0 | 0.00 | 0.00 | 0.00 | 68 | 1017.8 |
| 20260510095004 | 43 | 360 | 1.0 | 4.0 | 0.00 | 0.00 | 0.00 | 68 | 1017.7 |
| 20260510094505 | 43 | 360 | 1.0 | 4.0 | 0.00 | 0.00 | 0.00 | 67 | 1017.7 |
| 20260510094002 | 43 | 360 | 2.0 | 4.0 | 0.00 | 0.00 | 0.00 | 68 | 1017.6 |
| 20260510093502 | 43 | 360 | 2.0 | 4.0 | 0.00 | 0.00 | 0.00 | 68 | 1017.6 |
| 20260510093002 | 43 | 360 | 2.0 | 4.0 | 0.00 | 0.00 | 0.00 | 68 | 1017.6 |
| 20260510092501 | 43 | 360 | 1.0 | 4.0 | 0.00 | 0.00 | 0.00 | 69 | 1017.5 |
| 20260510092101 | 43 | 360 | 2.0 | 4.0 | 0.00 | 0.00 | 0.00 | 69 | 1017.5 |
| 20260510091608 | 43 | 360 | 1.0 | 4.0 | 0.00 | 0.00 | 0.00 | 69 | 1017.4 |
| 20260510091059 | 43 | 360 | 1.0 | 3.0 | 0.00 | 0.00 | 0.00 | 70 | 1017.4 |
| 20260510090603 | 43 | 360 | 1.0 | 3.0 | 0.00 | 0.00 | 0.00 | 70 | 1017.3 |
| 20260510090114 | 43 | 360 | 1.0 | 2.0 | 0.00 | 0.00 | 0.00 | 70 | 1017.4 |
| 20260510085558 | 43 | 360 | 1.0 | 2.0 | 0.00 | 0.01 | 0.00 | 70 | 1017.3 |
| 20260510085056 | 43 | 360 | 1.0 | 2.0 | 0.00 | 0.01 | 0.00 | 70 | 1017.3 |
| 20260510084602 | 43 | 360 | 1.0 | 2.0 | 0.00 | 0.01 | 0.00 | 71 | 1017.2 |
| 20260510084055 | 43 | 360 | 0.0 | 2.0 | 0.00 | 0.01 | 0.00 | 71 | 1017.1 |
| 20260510083555 | 43 | 360 | 1.0 | 2.0 | 0.00 | 0.01 | 0.00 | 70 | 1017.1 |
| 20260510083101 | 43 | 360 | 0.0 | 2.0 | 0.00 | 0.01 | 0.00 | 71 | 1017.0 |
| 20260510082553 | 43 | 360 | 0.0 | 2.0 | 0.00 | 0.01 | 0.00 | 71 | 1016.9 |
| 20260510082053 | 43 | 360 | 0.0 | 3.0 | 0.00 | 0.01 | 0.00 | 70 | 1016.9 |
| 20260510081553 | 43 | 360 | 1.0 | 3.0 | 0.00 | 0.01 | 0.00 | 70 | 1016.9 |
| 20260510081052 | 43 | 360 | 1.0 | 3.0 | 0.00 | 0.01 | 0.00 | 70 | 1016.8 |
| 20260510080552 | 43 | 360 | 1.0 | 5.0 | 0.00 | 0.01 | 0.00 | 70 | 1016.8 |
| 20260510080058 | 43 | 360 | 2.0 | 5.0 | 0.00 | 0.01 | 0.00 | 70 | 1016.7 |
| 20260510075550 | 43 | 360 | 2.0 | 4.0 | 0.00 | 0.01 | 0.00 | 71 | 1016.6 |
| 20260510075049 | 43 | 360 | 2.0 | 5.0 | 0.00 | 0.01 | 0.00 | 70 | 1016.5 |
| 20260510074548 | 43 | 360 | 2.0 | 5.0 | 0.00 | 0.01 | 0.00 | 71 | 1016.5 |
| 20260510074048 | 43 | 360 | 2.0 | 6.0 | 0.00 | 0.01 | 0.00 | 71 | 1016.5 |
| 20260510073548 | 42 | 360 | 2.0 | 6.0 | 0.00 | 0.01 | 0.00 | 72 | 1016.4 |
| 20260510073044 | 42 | 360 | 1.0 | 3.0 | 0.00 | 0.01 | 0.00 | 74 | 1016.3 |
| 20260510072544 | 42 | 360 | 0.0 | 3.0 | 0.00 | 0.01 | 0.00 | 76 | 1016.1 |
| 20260510072045 | 41 | 360 | 1.0 | 3.0 | 0.00 | 0.01 | 0.00 | 76 | 1016.1 |
| 20260510071542 | 41 | 360 | 1.0 | 3.0 | 0.00 | 0.01 | 0.00 | 76 | 1016.0 |
| 20260510071041 | 41 | 360 | 1.0 | 3.0 | 0.00 | 0.01 | 0.00 | 78 | 1016.0 |
| 20260510070540 | 40 | 360 | 1.0 | 3.0 | 0.00 | 0.01 | 0.00 | 80 | 1015.9 |
| 20260510070047 | 40 | 360 | 0.0 | 2.0 | 0.00 | 0.01 | 0.00 | 83 | 1015.9 |
| 20260510065539 | 40 | 360 | 1.0 | 2.0 | 0.00 | 0.02 | 0.00 | 83 | 1015.7 |
| 20260510065039 | 39 | 360 | 0.0 | 0.0 | 0.00 | 0.02 | 0.00 | 85 | 1015.7 |
| 20260510064556 | 39 | 360 | 0.0 | 0.0 | 0.00 | 0.02 | 0.00 | 85 | 1015.7 |
| 20260510064037 | 39 | 360 | 0.0 | 0.0 | 0.00 | 0.02 | 0.00 | 84 | 1015.7 |
| 20260510063537 | 39 | 360 | 0.0 | 0.0 | 0.00 | 0.02 | 0.00 | 83 | 1015.6 |
| 20260510063044 | 39 | 360 | 0.0 | 0.0 | 0.00 | 0.02 | 0.00 | 83 | 1015.5 |
| 20260510062536 | 40 | 360 | 0.0 | 1.0 | 0.00 | 0.02 | 0.00 | 82 | 1015.6 |
| 20260510062037 | 40 | 360 | 0.0 | 2.0 | 0.00 | 0.02 | 0.00 | 81 | 1015.6 |
| 20260510061545 | 41 | 360 | 0.0 | 2.0 | 0.00 | 0.02 | 0.00 | 83 | 1015.6 |
| 20260510061035 | 41 | 360 | 0.0 | 2.0 | 0.00 | 0.02 | 0.00 | 83 | 1015.5 |
| 20260510060533 | 41 | 360 | 0.0 | 2.0 | 0.00 | 0.02 | 0.00 | 84 | 1015.6 |
| 20260510060038 | 41 | 360 | 0.0 | 2.0 | 0.00 | 0.02 | 0.00 | 83 | 1015.6 |
| 20260510055533 | 41 | 360 | 1.0 | 2.0 | 0.00 | 0.13 | 0.00 | 83 | 1015.6 |
| 20260510055030 | 40 | 360 | 0.0 | 2.0 | 0.00 | 0.13 | 0.00 | 84 | 1015.5 |
| 20260510054529 | 40 | 360 | 0.0 | 2.0 | 0.00 | 0.13 | 0.00 | 83 | 1015.5 |
| 20260510054027 | 40 | 360 | 0.0 | 0.0 | 0.00 | 0.13 | 0.00 | 81 | 1015.3 |
| 20260510053527 | 40 | 360 | 0.0 | 0.0 | 0.00 | 0.13 | 0.00 | 80 | 1015.3 |
| 20260510053026 | 40 | 360 | 0.0 | 0.0 | 0.00 | 0.13 | 0.00 | 80 | 1015.2 |
| 20260510052524 | 40 | 360 | 0.0 | 0.0 | 0.00 | 0.13 | 0.00 | 80 | 1015.1 |
| 20260510052024 | 40 | 360 | 0.0 | 0.0 | 0.00 | 0.13 | 0.00 | 80 | 1015.0 |
| 20260510051523 | 40 | 360 | 0.0 | 2.0 | 0.00 | 0.13 | 0.00 | 78 | 1015.0 |
| 20260510051022 | 41 | 360 | 1.0 | 2.0 | 0.00 | 0.13 | 0.00 | 78 | 1015.0 |
| 20260510050519 | 42 | 360 | 0.0 | 0.0 | 0.00 | 0.13 | 0.00 | 77 | 1015.0 |
| 20260510050018 | 43 | 360 | 0.0 | 0.0 | 0.00 | 0.13 | 0.00 | 76 | 1015.1 |
| 20260510045518 | 43 | 360 | 0.0 | 0.0 | 0.00 | 0.16 | 0.13 | 76 | 1015.1 |
| 20260510045022 | 44 | 360 | 0.0 | 1.0 | 0.00 | 0.16 | 0.13 | 76 | 1015.2 |
| 20260510044518 | 44 | 360 | 0.0 | 2.0 | 0.00 | 0.16 | 0.13 | 76 | 1015.2 |
| 20260510044017 | 44 | 360 | 1.0 | 2.0 | 0.00 | 0.16 | 0.13 | 75 | 1015.2 |
| 20260510043519 | 44 | 360 | 0.0 | 1.0 | 0.00 | 0.16 | 0.13 | 74 | 1015.1 |
| 20260510043017 | 44 | 360 | 0.0 | 0.0 | 0.00 | 0.16 | 0.13 | 74 | 1015.0 |
| 20260510042516 | 44 | 360 | 0.0 | 0.0 | 0.00 | 0.16 | 0.13 | 71 | 1015.0 |
| 20260510042015 | 44 | 360 | 0.0 | 0.0 | 0.00 | 0.16 | 0.13 | 68 | 1014.9 |
| 20260510041515 | 45 | 360 | 0.0 | 0.0 | 0.00 | 0.16 | 0.13 | 67 | 1014.8 |
| 20260510041013 | 45 | 360 | 0.0 | 0.0 | 0.00 | 0.16 | 0.13 | 66 | 1014.8 |
| 20260510040515 | 45 | 360 | 0.0 | 0.0 | 0.00 | 0.16 | 0.13 | 65 | 1014.8 |
| 20260510040015 | 45 | 360 | 0.0 | 0.0 | 0.00 | 0.16 | 0.13 | 64 | 1014.8 |
| 20260510035512 | 46 | 360 | 0.0 | 1.0 | 0.00 | 0.16 | 0.13 | 63 | 1014.7 |
| 20260510035012 | 46 | 360 | 0.0 | 1.0 | 0.00 | 0.16 | 0.13 | 60 | 1014.6 |
| 20260510034512 | 46 | 360 | 0.0 | 0.0 | 0.00 | 0.16 | 0.13 | 58 | 1014.7 |
| 20260510034013 | 46 | 360 | 0.0 | 0.0 | 0.00 | 0.16 | 0.13 | 60 | 1014.5 |
| 20260510033510 | 46 | 360 | 0.0 | 0.0 | 0.00 | 0.16 | 0.13 | 62 | 1014.5 |
| 20260510033013 | 46 | 360 | 0.0 | 0.0 | 0.00 | 0.16 | 0.13 | 62 | 1014.5 |
| 20260510032510 | 47 | 360 | 0.0 | 1.0 | 0.00 | 0.16 | 0.13 | 66 | 1014.5 |
| 20260510032011 | 47 | 360 | 0.0 | 1.0 | 0.00 | 0.16 | 0.13 | 66 | 1014.5 |
| 20260510031510 | 48 | 360 | 0.0 | 0.0 | 0.00 | 0.16 | 0.13 | 61 | 1014.6 |
| 20260510031011 | 48 | 360 | 0.0 | 0.0 | 0.00 | 0.16 | 0.13 | 56 | 1014.6 |
| 20260510030509 | 48 | 360 | 0.0 | 0.0 | 0.00 | 0.16 | 0.13 | 56 | 1014.5 |
| 20260510030010 | 48 | 360 | 0.0 | 0.0 | 0.00 | 0.16 | 0.13 | 55 | 1014.5 |
| 20260510025513 | 48 | 360 | 0.0 | 0.0 | 0.00 | 0.16 | 0.13 | 53 | 1014.5 |
| 20260510025008 | 48 | 360 | 0.0 | 0.0 | 0.00 | 0.16 | 0.13 | 52 | 1014.4 |
| 20260510024507 | 49 | 360 | 0.0 | 0.0 | 0.00 | 0.16 | 0.13 | 52 | 1014.4 |
| 20260510024007 | 49 | 360 | 0.0 | 0.0 | 0.00 | 0.16 | 0.13 | 55 | 1014.3 |
| 20260510023507 | 49 | 360 | 0.0 | 0.0 | 0.00 | 0.16 | 0.13 | 58 | 1014.3 |
| 20260510023006 | 49 | 360 | 0.0 | 0.0 | 0.00 | 0.16 | 0.13 | 52 | 1014.2 |
| 20260510022507 | 50 | 360 | 0.0 | 0.0 | 0.00 | 0.16 | 0.13 | 52 | 1014.1 |
| 20260510022004 | 50 | 360 | 0.0 | 1.0 | 0.00 | 0.16 | 0.13 | 51 | 1014.0 |
| 20260510021506 | 50 | 360 | 0.0 | 1.0 | 0.00 | 0.16 | 0.13 | 51 | 1013.9 |
| 20260510021003 | 50 | 360 | 0.0 | 1.0 | 0.00 | 0.16 | 0.13 | 50 | 1013.9 |
| 20260510020503 | 50 | 360 | 0.0 | 0.0 | 0.00 | 0.16 | 0.13 | 50 | 1013.7 |
| 20260510020002 | 50 | 360 | 0.0 | 1.0 | 0.00 | 0.16 | 0.13 | 49 | 1013.6 |
| 20260510015500 | 51 | 360 | 0.0 | 1.0 | 0.00 | 0.16 | 0.13 | 50 | 1013.5 |
| 20260510015000 | 51 | 360 | 0.0 | 2.0 | 0.00 | 0.16 | 0.13 | 49 | 1013.5 |
| 20260510014601 | 51 | 360 | 0.0 | 2.0 | 0.00 | 0.16 | 0.13 | 49 | 1013.5 |
| 20260510014100 | 51 | 360 | 0.0 | 3.0 | 0.00 | 0.16 | 0.13 | 48 | 1013.4 |
| 20260510013602 | 51 | 360 | 1.0 | 3.0 | 0.00 | 0.16 | 0.13 | 47 | 1013.4 |
| 20260510013103 | 51 | 360 | 0.0 | 4.0 | 0.00 | 0.16 | 0.13 | 47 | 1013.3 |
| 20260510012600 | 52 | 360 | 0.0 | 4.0 | 0.00 | 0.16 | 0.13 | 46 | 1013.3 |
| 20260510012058 | 52 | 360 | 0.0 | 4.0 | 0.00 | 0.16 | 0.13 | 46 | 1013.2 |
| 20260510011600 | 52 | 360 | 1.0 | 4.0 | 0.00 | 0.16 | 0.13 | 46 | 1013.2 |
| 20260510011157 | 52 | 360 | 0.0 | 5.0 | 0.00 | 0.16 | 0.13 | 47 | 1013.3 |
| 20260510010556 | 52 | 360 | 1.0 | 4.0 | 0.00 | 0.16 | 0.13 | 46 | 1013.2 |
| 20260510010057 | 52 | 360 | 1.0 | 4.0 | 0.00 | 0.16 | 0.13 | 46 | 1013.2 |
| 20260510005556 | 52 | 360 | 1.0 | 4.0 | 0.00 | 0.16 | 0.13 | 45 | 1013.1 |
| 20260510005058 | 53 | 360 | 2.0 | 4.0 | 0.00 | 0.16 | 0.13 | 45 | 1013.1 |
| 20260510004554 | 53 | 360 | 2.0 | 4.0 | 0.00 | 0.16 | 0.13 | 44 | 1013.0 |
| 20260510004054 | 53 | 360 | 2.0 | 10.0 | 0.00 | 0.16 | 0.13 | 45 | 1013.0 |
| 20260510003556 | 53 | 360 | 2.0 | 10.0 | 0.00 | 0.16 | 0.13 | 46 | 1012.9 |
| 20260510003059 | 53 | 360 | 2.0 | 9.0 | 0.00 | 0.16 | 0.13 | 44 | 1012.8 |
| 20260510002555 | 54 | 360 | 2.0 | 9.0 | 0.00 | 0.16 | 0.13 | 44 | 1012.8 |
| 20260510002052 | 54 | 360 | 1.0 | 8.0 | 0.00 | 0.16 | 0.13 | 43 | 1012.7 |
| 20260510001552 | 54 | 70 | 1.0 | 12.0 | 0.00 | 0.16 | 0.13 | 45 | 1012.7 |
| 20260510001053 | 53 | 58 | 3.0 | 12.0 | 0.00 | 0.16 | 0.13 | 43 | 1012.6 |
| 20260510000551 | 54 | 35 | 4.0 | 12.0 | 0.00 | 0.16 | 0.13 | 42 | 1012.5 |
| 20260510000057 | 54 | 69 | 5.0 | 12.0 | 0.00 | 0.16 | 0.13 | 43 | 1012.6 |
| 20260509235550 | 54 | 63 | 3.0 | 13.0 | 0.00 | 0.16 | 0.13 | 42 | 1012.5 |
| 20260509235049 | 54 | 57 | 5.0 | 13.0 | 0.00 | 0.16 | 0.13 | 43 | 1012.5 |
| 20260509234602 | 54 | 347 | 2.0 | 6.0 | 0.00 | 0.16 | 0.13 | 43 | 1012.4 |
| 20260509234049 | 54 | 121 | 2.0 | 6.0 | 0.00 | 0.16 | 0.13 | 44 | 1012.4 |
| 20260509233549 | 54 | 61 | 1.0 | 9.0 | 0.00 | 0.16 | 0.13 | 43 | 1012.4 |
| 20260509233055 | 54 | 39 | 2.0 | 9.0 | 0.00 | 0.16 | 0.13 | 43 | 1012.4 |
| 20260509232548 | 54 | 72 | 2.0 | 8.0 | 0.00 | 0.16 | 0.13 | 44 | 1012.2 |
| 20260509232048 | 54 | 80 | 0.0 | 11.0 | 0.00 | 0.16 | 0.13 | 43 | 1012.2 |
| 20260509231605 | 54 | 22 | 2.0 | 6.0 | 0.00 | 0.16 | 0.13 | 41 | 1012.2 |